BEL87E EDDB-EBBR

Flight info

Callsign BEL87E
Flight time 1h 5m
Altitude 30000
Route KISUC1Z KISUC Z20 MAG Z92 ABGUS DCT TOLTA DCT ABAMI Z717 NEREL/N0384F240 T855 AGENI/N0355F180 T855 BATTY
Aircraft A320/M-SDE3FGHIRWY/LB1

Departure

Time 2026-05-06 07:33
Airport Berlin Brandenburg Airport (EDDB)

Arrival

Time 2026-05-06 08:38
Airport Brussels Airport (EBBR)
Time Latitude Longitude Altitude Speed Heading
2026-05-06 07:06 52.36161 13.51428 159 ft 0 kts 339°
2026-05-06 07:15 52.36160 13.51428 159 ft 1 kts 339°
2026-05-06 07:15 52.36137 13.51443 159 ft 4 kts 338°
2026-05-06 07:15 52.36113 13.51460 159 ft 4 kts 329°
2026-05-06 07:16 52.36092 13.51485 159 ft 4 kts 305°
2026-05-06 07:16 52.36085 13.51519 159 ft 2 kts 250°
2026-05-06 07:16 52.36086 13.51523 159 ft 1 kts 248°
2026-05-06 07:20 52.36076 13.51483 159 ft 15 kts 249°
2026-05-06 07:20 52.36011 13.51205 158 ft 30 kts 249°
2026-05-06 07:21 52.35944 13.50927 158 ft 24 kts 250°
2026-05-06 07:21 52.35905 13.50764 158 ft 0 kts 246°
2026-05-06 07:21 52.35892 13.50711 158 ft 13 kts 248°
2026-05-06 07:21 52.35842 13.50634 158 ft 8 kts 187°
2026-05-06 07:22 52.35797 13.50634 158 ft 6 kts 182°
2026-05-06 07:22 52.35765 13.50664 158 ft 7 kts 147°
2026-05-06 07:22 52.35701 13.50686 158 ft 4 kts 204°
2026-05-06 07:22 52.35669 13.50589 158 ft 15 kts 249°
2026-05-06 07:23 52.35621 13.50387 158 ft 24 kts 249°
2026-05-06 07:23 52.35552 13.50093 158 ft 32 kts 248°
2026-05-06 07:23 52.35464 13.49721 158 ft 38 kts 247°
2026-05-06 07:23 52.35364 13.49300 158 ft 39 kts 249°
2026-05-06 07:24 52.35278 13.48934 158 ft 28 kts 249°
2026-05-06 07:24 52.35224 13.48708 158 ft 19 kts 249°
2026-05-06 07:24 52.35173 13.48491 158 ft 22 kts 249°
2026-05-06 07:24 52.35112 13.48233 158 ft 26 kts 250°
2026-05-06 07:25 52.35041 13.47937 158 ft 30 kts 249°
2026-05-06 07:25 52.34962 13.47604 158 ft 33 kts 248°
2026-05-06 07:25 52.34876 13.47244 158 ft 34 kts 248°
2026-05-06 07:25 52.34795 13.46901 158 ft 28 kts 249°
2026-05-06 07:26 52.34716 13.46770 158 ft 11 kts 168°
2026-05-06 07:26 52.34691 13.46784 157 ft 0 kts 159°
2026-05-06 07:31 52.34651 13.46809 156 ft 16 kts 158°
2026-05-06 07:31 52.34577 13.46965 153 ft 21 kts 81°
2026-05-06 07:32 52.34605 13.47098 151 ft 0 kts 67°
2026-05-06 07:32 52.34609 13.47114 151 ft 9 kts 68°
2026-05-06 07:32 52.34744 13.47684 153 ft 98 kts 69°
2026-05-06 07:33 52.35084 13.49110 166 ft 166 kts 69°
2026-05-06 07:33 52.35510 13.50885 1034 ft 167 kts 68°
2026-05-06 07:33 52.35873 13.52676 2122 ft 165 kts 84°
2026-05-06 07:33 52.35692 13.54483 2833 ft 163 kts 120°
2026-05-06 07:34 52.34906 13.55772 3372 ft 164 kts 153°
2026-05-06 07:34 52.33763 13.56236 3651 ft 184 kts 180°
2026-05-06 07:34 52.32456 13.55671 3909 ft 209 kts 211°
2026-05-06 07:34 52.31225 13.54157 4279 ft 234 kts 218°
2026-05-06 07:35 52.29890 13.52430 4805 ft 252 kts 219°
2026-05-06 07:35 52.28511 13.50637 5754 ft 255 kts 220°
2026-05-06 07:35 52.27311 13.48445 6581 ft 263 kts 237°
2026-05-06 07:35 52.26544 13.45722 7478 ft 267 kts 253°
2026-05-06 07:36 52.26282 13.42677 8202 ft 278 kts 270°
2026-05-06 07:36 52.26299 13.39478 8951 ft 286 kts 270°
2026-05-06 07:36 52.26306 13.36195 9774 ft 292 kts 269°
2026-05-06 07:36 52.26213 13.32795 10191 ft 311 kts 261°
2026-05-06 07:37 52.25858 13.29189 10525 ft 330 kts 258°
2026-05-06 07:37 52.25449 13.25491 11333 ft 330 kts 259°
2026-05-06 07:37 52.25027 13.21823 12252 ft 328 kts 259°
2026-05-06 07:37 52.24602 13.18162 13101 ft 329 kts 259°
2026-05-06 07:38 52.24178 13.14490 13877 ft 330 kts 259°
2026-05-06 07:38 52.23751 13.10788 14541 ft 333 kts 259°
2026-05-06 07:38 52.23324 13.07059 15168 ft 336 kts 258°
2026-05-06 07:38 52.22896 13.03282 15619 ft 341 kts 258°
2026-05-06 07:39 52.22468 12.99475 15897 ft 343 kts 258°
2026-05-06 07:39 52.22035 12.95635 16574 ft 346 kts 258°
2026-05-06 07:39 52.21594 12.91753 17240 ft 349 kts 258°
2026-05-06 07:39 52.21147 12.87847 17901 ft 352 kts 259°
2026-05-06 07:40 52.20695 12.83904 18509 ft 356 kts 259°
2026-05-06 07:40 52.20243 12.79974 19059 ft 359 kts 259°
2026-05-06 07:40 52.19781 12.75954 19574 ft 362 kts 259°
2026-05-06 07:40 52.19312 12.71898 20092 ft 366 kts 259°
2026-05-06 07:41 52.18836 12.67799 20612 ft 370 kts 259°
2026-05-06 07:41 52.18355 12.63657 21166 ft 373 kts 259°
2026-05-06 07:41 52.17866 12.59473 21721 ft 378 kts 259°
2026-05-06 07:41 52.17365 12.55247 22275 ft 382 kts 258°
2026-05-06 07:42 52.16859 12.50977 22788 ft 386 kts 258°
2026-05-06 07:42 52.16348 12.46667 23303 ft 390 kts 258°
2026-05-06 07:42 52.15831 12.42315 23713 ft 393 kts 258°
2026-05-06 07:42 52.15308 12.37923 24156 ft 396 kts 259°
2026-05-06 07:43 52.14783 12.33493 24533 ft 401 kts 259°
2026-05-06 07:43 52.14248 12.29021 24924 ft 404 kts 258°
2026-05-06 07:43 52.13707 12.24519 25289 ft 407 kts 258°
2026-05-06 07:43 52.13159 12.19980 25624 ft 410 kts 258°
2026-05-06 07:44 52.12614 12.15473 25967 ft 412 kts 258°
2026-05-06 07:44 52.12057 12.10886 26349 ft 414 kts 258°
2026-05-06 07:44 52.11492 12.06267 26666 ft 417 kts 258°
2026-05-06 07:44 52.10923 12.01614 26978 ft 421 kts 258°
2026-05-06 07:45 52.10350 11.96925 27319 ft 424 kts 258°
2026-05-06 07:45 52.09772 11.92210 27665 ft 427 kts 258°
2026-05-06 07:45 52.09188 11.87447 27987 ft 431 kts 258°
2026-05-06 07:45 52.08597 11.82655 28297 ft 435 kts 257°
2026-05-06 07:46 52.07993 11.77812 28575 ft 439 kts 257°
2026-05-06 07:46 52.07380 11.72932 28866 ft 442 kts 258°
2026-05-06 07:46 52.06761 11.68017 29170 ft 445 kts 257°
2026-05-06 07:46 52.06139 11.63082 29470 ft 447 kts 257°
2026-05-06 07:47 52.05512 11.58117 29721 ft 450 kts 257°
2026-05-06 07:47 52.04888 11.53174 29774 ft 440 kts 257°
2026-05-06 07:47 52.03675 11.43607 29781 ft 428 kts 257°
2026-05-06 07:48 52.02462 11.34160 29777 ft 427 kts 257°
2026-05-06 07:48 52.01248 11.24754 29777 ft 425 kts 256°
2026-05-06 07:49 52.00035 11.15429 29783 ft 425 kts 256°
2026-05-06 07:49 51.98803 11.06039 29758 ft 426 kts 256°
2026-05-06 07:50 51.97563 10.96615 29751 ft 428 kts 256°
2026-05-06 07:50 51.96311 10.87144 29751 ft 430 kts 256°
2026-05-06 07:51 51.95049 10.77667 29758 ft 430 kts 255°
2026-05-06 07:51 51.93777 10.68193 29752 ft 430 kts 255°
2026-05-06 07:52 51.92495 10.58722 29758 ft 430 kts 255°
2026-05-06 07:52 51.91216 10.49318 29759 ft 431 kts 255°
2026-05-06 07:53 51.89920 10.39847 29749 ft 431 kts 255°
2026-05-06 07:53 51.88612 10.30391 29752 ft 431 kts 255°
2026-05-06 07:54 51.87294 10.20934 29763 ft 431 kts 255°
2026-05-06 07:54 51.85979 10.11477 29765 ft 431 kts 255°
2026-05-06 07:55 51.84653 10.02016 29780 ft 431 kts 255°
2026-05-06 07:55 51.83327 9.92587 29789 ft 429 kts 255°
2026-05-06 07:56 51.81995 9.83196 29781 ft 428 kts 255°
2026-05-06 07:56 51.80652 9.73838 29782 ft 427 kts 255°
2026-05-06 07:57 51.79304 9.64482 29777 ft 428 kts 255°
2026-05-06 07:57 51.77960 9.55192 29767 ft 427 kts 255°
2026-05-06 07:58 51.76597 9.45847 29763 ft 427 kts 254°
2026-05-06 07:58 51.75226 9.36523 29759 ft 427 kts 254°
2026-05-06 07:59 51.74078 9.28766 29760 ft 427 kts 254°
2026-05-06 07:59 51.72703 9.19463 29753 ft 426 kts 254°
2026-05-06 08:00 51.71317 9.10160 29751 ft 426 kts 254°
2026-05-06 08:00 51.69924 9.00867 29759 ft 426 kts 255°
2026-05-06 08:01 51.68523 8.91602 29780 ft 424 kts 255°
2026-05-06 08:01 51.67125 8.82368 29800 ft 423 kts 255°
2026-05-06 08:02 51.65726 8.73178 29798 ft 422 kts 254°
2026-05-06 08:02 51.64318 8.64014 29797 ft 421 kts 254°
2026-05-06 08:03 51.62907 8.54868 29789 ft 421 kts 254°
2026-05-06 08:03 51.61502 8.45799 29781 ft 420 kts 254°
2026-05-06 08:04 51.60083 8.36681 29777 ft 420 kts 254°
2026-05-06 08:04 51.58651 8.27568 29778 ft 420 kts 254°
2026-05-06 08:05 51.57211 8.18458 29781 ft 420 kts 254°
2026-05-06 08:05 51.55758 8.09341 29786 ft 420 kts 254°
2026-05-06 08:06 51.54304 8.00237 29771 ft 420 kts 254°
2026-05-06 08:06 51.52859 7.91219 29772 ft 420 kts 254°
2026-05-06 08:07 51.51385 7.82107 29766 ft 421 kts 254°
2026-05-06 08:07 51.49903 7.73007 29765 ft 422 kts 254°
2026-05-06 08:08 51.48415 7.63895 29772 ft 422 kts 254°
2026-05-06 08:08 51.46922 7.54767 29774 ft 422 kts 254°
2026-05-06 08:09 51.45425 7.45664 29785 ft 422 kts 254°
2026-05-06 08:09 51.43930 7.36630 29785 ft 422 kts 254°
2026-05-06 08:10 51.43156 7.32093 29560 ft 421 kts 251°
2026-05-06 08:10 51.42056 7.27758 29282 ft 417 kts 241°
2026-05-06 08:10 51.40544 7.23823 28993 ft 414 kts 232°
2026-05-06 08:10 51.38825 7.20141 28701 ft 412 kts 232°
2026-05-06 08:11 51.37109 7.16467 28425 ft 411 kts 231°
2026-05-06 08:11 51.35399 7.12800 28168 ft 410 kts 232°
2026-05-06 08:11 51.33698 7.09152 27805 ft 407 kts 232°
2026-05-06 08:11 51.32012 7.05548 27262 ft 403 kts 232°
2026-05-06 08:12 51.30361 7.02023 26707 ft 400 kts 232°
2026-05-06 08:12 51.28698 6.98480 26166 ft 396 kts 232°
2026-05-06 08:12 51.27048 6.94971 25640 ft 393 kts 232°
2026-05-06 08:12 51.25413 6.91497 25112 ft 390 kts 232°
2026-05-06 08:13 51.23789 6.88053 24591 ft 387 kts 232°
2026-05-06 08:13 51.22178 6.84635 24089 ft 384 kts 232°
2026-05-06 08:13 51.20582 6.81248 23597 ft 380 kts 232°
2026-05-06 08:13 51.18997 6.77888 23065 ft 378 kts 232°
2026-05-06 08:14 51.17426 6.74565 22556 ft 373 kts 232°
2026-05-06 08:14 51.15867 6.71280 22075 ft 369 kts 232°
2026-05-06 08:14 51.14328 6.68034 21630 ft 365 kts 232°
2026-05-06 08:14 51.12810 6.64843 21229 ft 359 kts 232°
2026-05-06 08:15 51.11302 6.61686 20739 ft 357 kts 232°
2026-05-06 08:15 51.09807 6.58554 20274 ft 354 kts 232°
2026-05-06 08:15 51.08251 6.55549 19833 ft 351 kts 226°
2026-05-06 08:15 51.06533 6.52820 19401 ft 348 kts 224°
2026-05-06 08:16 51.04827 6.50121 18990 ft 345 kts 224°
2026-05-06 08:16 51.03158 6.47471 18589 ft 341 kts 224°
2026-05-06 08:16 51.01485 6.44817 18188 ft 338 kts 224°
2026-05-06 08:16 50.99825 6.42188 17763 ft 336 kts 224°
2026-05-06 08:17 50.98176 6.39585 17322 ft 334 kts 224°
2026-05-06 08:17 50.96532 6.36998 16867 ft 331 kts 225°
2026-05-06 08:17 50.94899 6.34432 16421 ft 329 kts 225°
2026-05-06 08:17 50.93276 6.31880 15986 ft 327 kts 225°
2026-05-06 08:18 50.91662 6.29345 15560 ft 326 kts 225°
2026-05-06 08:18 50.90057 6.26830 15127 ft 324 kts 225°
2026-05-06 08:18 50.88460 6.24329 14708 ft 322 kts 225°
2026-05-06 08:18 50.86868 6.21838 14298 ft 320 kts 225°
2026-05-06 08:19 50.85288 6.19370 13898 ft 319 kts 225°
2026-05-06 08:19 50.83711 6.16909 13519 ft 318 kts 226°
2026-05-06 08:19 50.82143 6.14464 13172 ft 316 kts 225°
2026-05-06 08:19 50.80584 6.12033 12836 ft 314 kts 226°
2026-05-06 08:20 50.79031 6.09613 12491 ft 313 kts 225°
2026-05-06 08:20 50.77486 6.07207 12111 ft 312 kts 225°
2026-05-06 08:20 50.75945 6.04806 11733 ft 310 kts 225°
2026-05-06 08:20 50.74422 6.02381 11328 ft 310 kts 227°
2026-05-06 08:21 50.72981 5.99865 10944 ft 308 kts 230°
2026-05-06 08:21 50.71594 5.97310 10562 ft 305 kts 230°
2026-05-06 08:21 50.70230 5.94751 10139 ft 304 kts 231°
2026-05-06 08:21 50.68874 5.92206 9758 ft 301 kts 230°
2026-05-06 08:22 50.67665 5.89646 9638 ft 289 kts 241°
2026-05-06 08:22 50.66865 5.86777 9276 ft 285 kts 254°
2026-05-06 08:22 50.66530 5.83753 8800 ft 278 kts 268°
2026-05-06 08:22 50.66656 5.80706 8331 ft 279 kts 281°
2026-05-06 08:23 50.67223 5.77784 7893 ft 279 kts 294°
2026-05-06 08:23 50.68091 5.75081 7713 ft 276 kts 297°
2026-05-06 08:23 50.68965 5.72378 7588 ft 276 kts 297°
2026-05-06 08:23 50.69809 5.69736 7458 ft 264 kts 297°
2026-05-06 08:24 50.70617 5.67205 7331 ft 252 kts 297°
2026-05-06 08:24 50.71389 5.64785 7202 ft 241 kts 297°
2026-05-06 08:24 50.72126 5.62475 7088 ft 230 kts 297°
2026-05-06 08:24 50.72833 5.60266 6962 ft 221 kts 299°
2026-05-06 08:25 50.73521 5.58113 6862 ft 218 kts 299°
2026-05-06 08:25 50.74200 5.55985 6857 ft 216 kts 299°
2026-05-06 08:25 50.74877 5.53859 6850 ft 217 kts 300°
2026-05-06 08:25 50.75559 5.51721 6831 ft 222 kts 300°
2026-05-06 08:26 50.76280 5.49472 6826 ft 236 kts 300°
2026-05-06 08:26 50.77023 5.47144 6831 ft 239 kts 300°
2026-05-06 08:26 50.77773 5.44787 6834 ft 240 kts 300°
2026-05-06 08:26 50.78513 5.42460 6837 ft 240 kts 300°
2026-05-06 08:27 50.79260 5.40105 6838 ft 240 kts 300°
2026-05-06 08:27 50.80006 5.37751 6837 ft 240 kts 300°
2026-05-06 08:27 50.80754 5.35398 6838 ft 240 kts 300°
2026-05-06 08:27 50.81501 5.33044 6837 ft 240 kts 300°
2026-05-06 08:28 50.82248 5.30684 6839 ft 240 kts 300°
2026-05-06 08:28 50.82995 5.28323 6837 ft 240 kts 300°
2026-05-06 08:28 50.83741 5.25957 6848 ft 240 kts 300°
2026-05-06 08:28 50.84484 5.23589 6845 ft 240 kts 300°
2026-05-06 08:29 50.85225 5.21221 6844 ft 240 kts 300°
2026-05-06 08:29 50.85967 5.18852 6764 ft 240 kts 300°
2026-05-06 08:29 50.86710 5.16487 6617 ft 240 kts 299°
2026-05-06 08:29 50.87452 5.14125 6507 ft 239 kts 299°
2026-05-06 08:30 50.88294 5.11873 6381 ft 237 kts 306°
2026-05-06 08:30 50.89181 5.09679 6253 ft 233 kts 306°
2026-05-06 08:30 50.90035 5.07558 6124 ft 223 kts 306°
2026-05-06 08:30 50.90838 5.05554 6020 ft 215 kts 306°
2026-05-06 08:31 50.91637 5.03560 5944 ft 212 kts 306°
2026-05-06 08:31 50.92422 5.01603 5493 ft 211 kts 306°
2026-05-06 08:31 50.93209 4.99644 5090 ft 209 kts 307°
2026-05-06 08:31 50.93993 4.97694 4923 ft 209 kts 307°
2026-05-06 08:32 50.94770 4.95760 4596 ft 208 kts 307°
2026-05-06 08:32 50.95554 4.93810 4335 ft 211 kts 307°
2026-05-06 08:32 50.96339 4.91849 4079 ft 210 kts 307°
2026-05-06 08:32 50.97095 4.89863 3857 ft 211 kts 300°
2026-05-06 08:33 50.97510 4.87612 3638 ft 216 kts 280°
2026-05-06 08:33 50.97441 4.85221 3443 ft 220 kts 261°
2026-05-06 08:33 50.96950 4.82918 3296 ft 221 kts 253°
2026-05-06 08:33 50.96417 4.80628 3197 ft 222 kts 252°
2026-05-06 08:34 50.95866 4.78360 3097 ft 216 kts 252°
2026-05-06 08:34 50.94885 4.74118 2987 ft 199 kts 253°
2026-05-06 08:34 50.94418 4.72071 2809 ft 196 kts 253°
2026-05-06 08:35 50.93957 4.70052 2566 ft 194 kts 252°
2026-05-06 08:35 50.93499 4.68048 2289 ft 193 kts 254°
2026-05-06 08:35 50.93044 4.66061 2028 ft 191 kts 254°
2026-05-06 08:35 50.92594 4.64092 1789 ft 187 kts 253°
2026-05-06 08:36 50.92170 4.62250 1520 ft 168 kts 254°
2026-05-06 08:36 50.91787 4.60584 1293 ft 155 kts 255°
2026-05-06 08:36 50.91436 4.59056 1093 ft 147 kts 255°
2026-05-06 08:36 50.91088 4.57535 889 ft 145 kts 255°
2026-05-06 08:37 50.90744 4.56040 696 ft 143 kts 255°
2026-05-06 08:37 50.90409 4.54586 527 ft 138 kts 253°
2026-05-06 08:37 50.90084 4.53164 325 ft 137 kts 255°
2026-05-06 08:37 50.89769 4.51760 174 ft 135 kts 253°
2026-05-06 08:38 50.89507 4.50648 175 ft 77 kts 249°
2026-05-06 08:38 50.89375 4.50073 177 ft 46 kts 250°
2026-05-06 08:38 50.89341 4.49751 177 ft 25 kts 289°
2026-05-06 08:38 50.89445 4.49516 166 ft 27 kts 307°
2026-05-06 08:39 50.89541 4.49314 161 ft 20 kts 307°
2026-05-06 08:39 50.89632 4.49153 153 ft 17 kts 345°
2026-05-06 08:39 50.89767 4.49195 145 ft 22 kts 14°
2026-05-06 08:39 50.89935 4.49263 136 ft 27 kts 14°
2026-05-06 08:40 50.90107 4.49332 129 ft 19 kts 14°
2026-05-06 08:40 50.90243 4.49389 125 ft 22 kts 15°
2026-05-06 08:40 50.90360 4.49345 125 ft 18 kts 327°
2026-05-06 08:40 50.90483 4.49252 120 ft 21 kts 337°
2026-05-06 08:41 50.90601 4.49167 121 ft 15 kts 335°
2026-05-06 08:41 50.90638 4.49048 117 ft 15 kts 245°
2026-05-06 08:41 50.90595 4.48899 117 ft 15 kts 244°
2026-05-06 08:41 50.90552 4.48753 117 ft 14 kts 245°
2026-05-06 08:42 50.90511 4.48609 119 ft 14 kts 245°
2026-05-06 08:42 50.90469 4.48467 118 ft 15 kts 245°
2026-05-06 08:42 50.90415 4.48280 119 ft 26 kts 245°
2026-05-06 08:42 50.90341 4.48019 119 ft 15 kts 245°
2026-05-06 08:43 50.90279 4.48011 119 ft 9 kts 153°
2026-05-06 08:43 50.90246 4.48035 120 ft 0 kts 155°